Probability
26 25 22 22 25 27 26 23 21 21 21 18 15 13 11 9 7 6 5 5 5 5 4 3 2 2 2 2 1 2 2 2 3 4 4 4 3 3 3 3 3 2 1
19 19 19 19 21 22 23 21 19 18 18 16 14 12 10 7 6 5 4 4 4 4 3 4 4 3 2 1 1 1 2 2 2 3 4 4 3 3 3 3 3 3 2
10 11 12 13 15 15 15 15 13 12 13 13 11 8 6 4 3 3 2 2 3 3 3 4 4 3 2 1 0 1 2 1 1 2 3 3 3 2 1 1 2 3 3
4 5 6 7 8 7 7 8 7 7 8 9 7 5 3 2 2 1 1 1 1 2 3 3 2 1 1 0 0 1 1 1 0 1 2 3 3 2 1 1 1 2 3
3 3 3 4 4 3 4 5 6 6 5 5 4 3 3 2 1 1 0 0 0 1 2 2 1 0 0 0 0 0 0 0 0 0 1 2 3 3 2 2 1 2 2
3 3 3 3 3 3 3 4 4 5 4 3 3 3 3 2 1 0 0 0 0 0 1 1 0 0 0 0 0 0 0 0 0 0 0 1 2 2 2 2 2 2 1
2 3 3 3 3 3 3 3 3 3 2 2 2 2 2 1 0 0 0 0 0 0 0 0 0 0 0 0 0 0 0 0 0 0 0 0 1 1 1 1 1 1 0
3 3 3 3 3 3 3 3 3 2 1 1 1 1 1 1 0 0 0 0 0 0 0 0 0 0 0 0 0 0 0 0 0 0 0 0 0 0 0 0 0 0 0
3 3 3 3 3 3 3 3 2 1 0 0 0 0 0 0 0 0 0 0 0 0 0 0 0 0 0 0 0 0 0 0 0 0 0 0 0 0 0 0 0 0 0
1 2 3 3 3 3 3 2 1 0 0 0 0 0 0 0 0 0 0 0 0 0 0 0 0 0 0 0 0 0 0 0 0 0 0 0 0 0 0 0 0 0 0
0 1 2 2 2 2 2 1 0 0 0 0 0 0 0 0 0 0 0 0 0 0 0 0 0 0 0 0 0 0 0 0 0 0 0 0 0 0 0 0 0 0 0
0 0 1 1 1 1 1 0 0 0 0 0 0 0 0 0 0 0 0 0 0 0 0 0 0 0 0 0 0 0 0 0 0 0 0 0 0 0 0 0 0 0 0
0 0 0 0 0 0 0 0 0 0 0 0 0 0 0 0 0 0 0 0 0 0 0 0 0 0 0 0 0 0 0 0 0 0 0 0 0 0 0 0 0 0 0
0 0 0 0 0 0 0 0 0 0 0 0 0 0 0 0 0 0 0 0 0 0 0 0 0 0 0 0 0 0 0 0 0 0 0 0 0 0 0 0 0 0 0
0 0 0 0 0 0 0 0 0 0 0 0 0 0 0 0 0 0 0 0 0 0 0 0 0 0 0 0 0 0 0 0 0 0 0 0 0 0 0 0 0 0 0
0 0 0 0 0 0 0 0 0 0 0 0 0 0 0 0 0 0 0 0 0 0 0 0 0 0 0 0 0 0 0 0 0 0 0 0 0 0 0 0 0 0 0
0 0 0 0 0 0 0 0 0 0 0 0 0 0 0 0 0 0 0 0 0 0 0 0 0 0 0 0 0 0 0 0 0 0 0 0 0 0 0 0 0 0 0
0 0 0 0 0 0 0 0 0 0 0 0 0 0 0 0 0 0 0 0 0 0 0 0 0 0 0 0 0 0 0 0 0 0 0 0 0 0 0 0 0 0 0
0 0 0 0 0 0 0 0 0 0 0 0 0 0 0 0 0 0 0 0 0 0 0 0 0 0 0 0 0 0 0 0 0 0 0 0 0 0 0 0 0 0 0
0 0 0 0 0 0 0 0 0 0 0 0 0 0 0 0 0 0 0 0 0 0 0 0 0 0 0 0 0 0 0 0 0 0 0 0 0 0 0 0 0 0 0
0 0 0 0 0 0 0 0 0 0 0 0 0 0 0 0 0 0 0 0 0 0 0 0 0 0 0 0 0 0 0 0 0 0 0 0 0 0 0 0 0 0 0
0 0 0 0 0 0 0 0 0 0 0 0 0 0 0 0 0 0 0 0 0 0 0 0 0 0 0 0 0 0 0 0 0 0 0 0 0 0 0 0 0 0 0
0 0 0 0 0 0 0 0 0 0 0 0 0 0 0 0 0 0 0 0 0 0 0 0 0 0 0 0 0 0 0 0 0 0 0 0 0 0 0 0 0 0 0
0 0 0 0 0 0 0 0 0 0 0 0 0 0 0 0 0 0 0 0 0 0 0 0 0 0 0 0 0 0 0 0 0 0 0 0 0 0 0 0 0 0 0
0 0 0 0 0 0 0 0 0 0 0 0 0 0 0 0 0 0 0 0 0 0 0 0 0 0 0 0 0 0 0 0 0 0 0 0 0 0 0 0 0 0 0
0 0 0 0 0 0 0 0 0 0 0 0 0 0 0 0 0 0 0 0 0 0 0 0 0 0 0 0 0 0 0 0 0 0 0 0 0 0 0 0 0 0 0
Wind_Speed
7 8 8 7 6 6 6 5 4 4 3 2 2 2 2 3 3 3 4 3 4 3 3 2 2 2 2 1 2 2 3 2 1 3 3 3 4 5 4 4 4 5 5
7 8 9 8 7 6 6 5 5 4 3 2 2 2 3 3 4 4 5 5 5 5 4 4 2 2 2 2 2 2 2 2 1 2 2 1 1 3 4 4 4 4 4
7 7 8 9 8 8 7 6 5 5 4 4 3 4 4 4 4 5 5 7 7 7 6 6 5 4 4 3 2 2 3 2 2 2 2 3 3 1 2 4 4 4 4
7 7 8 8 8 8 7 6 6 6 5 5 5 6 5 4 3 4 5 7 9 8 7 7 7 6 5 4 4 4 2 2 2 1 2 2 2 3 2 1 3 4 5
7 7 7 7 7 7 6 6 6 7 6 6 6 7 7 5 5 6 8 8 8 9 9 8 7 7 6 6 6 6 6 4 3 2 2 2 2 2 2 2 1 2 3
6 6 7 7 8 7 7 7 7 8 8 8 7 8 9 8 8 8 8 7 6 7 9 8 8 8 7 7 7 7 8 6 7 5 4 2 2 2 2 2 1 1 2
6 6 7 8 8 8 8 7 9 9 9 9 9 8 9 9 9 8 7 7 6 6 8 8 8 7 8 8 8 8 8 7 8 6 5 4 3 2 2 2 2 2 1
6 7 7 7 7 7 7 7 9 9 9 9 9 8 9 8 7 8 7 7 6 6 7 8 8 9 9 8 8 7 7 7 7 8 6 5 4 3 2 2 2 2 2
6 7 6 6 7 7 7 8 9 9 10 9 10 10 10 10 9 9 8 7 7 7 9 8 9 9 9 8 7 7 7 7 7 6 7 5 4 4 3 2 2 2 2
5 6 6 6 6 7 7 8 9 9 9 9 9 9 10 10 9 9 9 9 8 8 8 8 9 9 8 8 7 7 6 7 6 5 7 6 4 4 4 4 3 2 2
5 5 5 5 6 7 8 9 9 9 9 9 9 10 10 9 9 9 9 8 8 8 8 8 8 8 8 7 7 7 7 8 7 6 7 7 6 5 4 4 4 3 2
6 6 6 6 7 7 8 8 8 9 9 9 9 9 9 9 9 9 8 8 8 8 8 8 8 8 8 7 7 7 7 7 7 6 7 6 5 6 5 4 4 3 2
7 6 6 6 7 7 7 8 8 8 8 8 9 9 9 9 8 7 7 8 8 8 7 7 8 7 7 7 6 6 6 6 5 5 6 5 6 6 4 4 4 3 3
7 7 6 6 6 6 6 7 7 7 7 7 8 8 7 7 7 6 7 7 7 7 7 7 7 6 6 6 6 5 5 5 5 5 4 4 4 4 3 3 3 2 2
7 7 7 6 6 6 6 6 6 6 6 7 7 6 6 6 6 7 7 7 7 7 6 7 6 6 5 5 5 4 5 5 5 5 4 4 5 5 3 2 1 1 1
8 8 7 7 6 5 5 5 6 5 5 6 6 5 5 6 6 6 6 6 6 6 6 6 6 6 5 7 7 5 4 4 4 4 4 4 5 7 7 7 5 2 0
8 8 7 6 6 5 5 5 5 5 5 5 5 5 5 5 5 5 6 5 5 5 6 5 6 6 6 8 8 7 4 4 3 3 3 3 4 5 4 6 6 5 3
8 8 6 6 5 5 5 5 5 5 5 5 4 4 4 5 4 5 5 4 3 4 4 4 4 5 6 8 7 6 5 4 3 3 2 2 3 4 5 5 5 5 4
7 6 6 6 6 6 5 6 5 4 4 4 3 3 4 4 4 4 3 3 3 3 3 3 4 4 5 8 7 5 3 3 4 3 3 3 3 5 5 4 5 5 4
7 7 6 7 6 5 5 6 5 5 4 3 3 3 3 3 3 3 2 2 2 2 3 3 4 4 4 7 8 5 2 3 3 4 4 5 6 7 5 2 2 4 4
8 8 7 6 5 5 6 6 5 3 2 2 3 3 3 3 3 3 2 2 3 3 3 4 3 4 5 6 8 7 3 3 3 3 4 5 8 7 5 2 2 4 5
8 8 7 6 4 4 5 5 3 2 3 3 3 3 3 3 3 3 3 3 3 3 3 3 3 3 4 5 6 7 6 4 2 3 4 5 8 6 5 3 3 3 3
7 6 7 6 4 4 4 4 2 2 3 3 3 3 3 4 3 3 3 3 3 2 2 2 2 3 3 4 6 7 7 6 2 3 6 6 7 5 4 6 7 5 3
6 6 6 6 4 3 2 2 2 3 3 3 3 3 3 3 3 3 2 2 2 2 1 1 1 2 3 3 4 4 4 5 4 3 5 5 6 6 5 5 5 4 3
5 5 5 5 3 2 2 1 2 3 3 3 3 3 3 3 3 2 2 1 1 2 1 1 0 1 2 4 6 5 4 4 3 3 3 4 4 5 5 5 5 4 5
5 5 5 4 2 2 1 1 2 3 3 2 2 2 2 2 2 2 2 2 0 0 2 3 2 2 4 6 6 6 6 5 3 3 3 3 4 4 4 4 4 4 5
Wind_Direction
46 43 43 44 46 50 54 44 43 50 69 105 122 130 120 103 83 69 65 74 84 87 96 107 100 100 120 137 144 133 103 73 85 109 91 59 53 52 41 36 40 39 39
47 41 40 41 39 40 45 49 47 47 52 69 106 103 100 91 85 67 57 53 62 64 71 70 74 76 84 74 73 120 123 79 52 133 141 139 52 41 38 39 44 40 44
49 43 41 40 40 38 38 42 42 52 51 62 83 92 86 79 70 66 55 45 53 58 67 72 72 66 69 71 59 75 130 140 80 55 135 163 190 137 48 43 43 39 45
47 44 42 39 38 34 33 34 37 46 49 63 86 98 96 93 75 83 74 57 52 53 56 63 67 69 67 65 56 53 64 116 131 84 51 69 117 149 137 53 38 44 44
52 48 45 41 40 34 33 34 44 51 52 62 81 94 91 90 90 84 78 66 55 53 54 57 61 65 63 61 58 55 57 61 75 75 60 56 51 62 137 138 64 50 40
56 49 48 46 41 36 37 38 53 53 52 63 69 86 98 101 96 86 82 72 63 57 54 60 63 65 64 62 62 61 61 64 71 67 58 60 68 64 90 115 101 75 32
63 53 46 42 37 36 37 40 58 57 53 62 67 76 90 94 93 91 88 84 74 63 52 58 61 62 61 62 65 66 61 59 67 68 64 59 55 60 80 95 93 74 35
68 62 51 45 40 40 43 45 57 63 61 65 67 70 79 84 83 83 85 83 79 72 64 62 61 61 62 61 62 68 65 62 64 64 62 61 47 46 64 103 123 101 56
74 68 57 47 47 47 48 50 60 66 64 65 71 72 73 78 82 81 79 78 76 76 69 67 65 61 61 60 62 64 62 64 63 61 60 58 47 45 49 62 93 126 110
83 75 67 56 53 54 54 55 63 69 70 68 72 78 75 76 79 79 76 75 72 72 70 65 64 62 60 60 64 65 62 67 61 62 62 54 45 46 46 52 56 71 114
101 87 78 69 65 64 62 62 63 67 68 70 73 76 76 76 77 76 74 74 71 69 69 66 66 63 58 57 63 63 61 66 61 58 63 56 48 51 44 47 53 56 78
102 94 86 80 73 70 69 68 68 69 71 73 75 75 77 77 76 73 71 72 70 66 67 67 66 64 58 55 59 62 60 65 64 60 61 54 54 51 44 47 49 48 54
108 97 89 85 80 76 76 76 75 76 75 78 79 77 75 75 75 73 72 73 72 68 66 67 65 61 57 55 55 60 60 59 62 62 63 56 57 50 43 47 46 40 48
116 107 96 88 84 81 81 82 80 79 80 79 80 77 74 74 74 72 71 72 74 71 68 67 64 60 57 53 52 58 59 55 53 55 58 54 55 49 38 43 37 37 42
120 114 109 101 94 87 83 82 82 79 81 81 78 75 74 74 75 72 70 68 68 68 66 65 57 50 49 42 48 55 61 57 52 47 44 45 53 48 35 28 16 27 36
132 126 122 113 106 101 96 89 86 84 85 83 81 80 77 75 75 75 74 70 66 62 61 58 56 48 40 38 51 61 62 56 52 43 30 35 40 30 25 22 21 15 324
136 132 129 122 115 111 107 99 94 88 85 83 80 78 79 77 74 77 73 68 63 62 58 50 51 45 30 37 48 57 63 56 48 38 25 22 20 18 7 6 13 12 358
134 131 127 119 110 106 104 103 99 94 91 86 80 76 76 74 72 72 67 60 58 60 55 47 43 42 29 33 45 56 57 51 37 24 10 358 348 356 359 358 360 355 349
127 124 121 115 110 109 110 106 95 91 92 91 85 82 88 86 79 75 68 63 66 62 55 52 45 42 21 24 38 50 43 36 19 6 0 353 342 339 354 4 355 349 344
112 111 108 103 104 108 111 106 98 94 95 93 84 80 88 91 89 85 80 72 84 78 67 57 43 38 23 18 29 36 33 21 359 349 351 358 350 340 345 346 338 336 329
109 109 107 105 110 116 113 109 105 105 99 83 80 74 77 89 96 83 73 82 82 76 66 57 36 29 20 15 22 25 29 5 346 345 343 339 341 342 343 322 275 282 300
110 111 111 107 104 112 114 110 105 100 88 84 76 70 68 76 87 84 73 72 82 77 60 49 31 16 9 12 8 12 15 3 344 332 326 323 335 352 9 11 348 335 338
113 111 114 109 97 97 112 119 114 92 88 83 77 70 66 64 70 85 87 74 72 75 60 52 29 355 351 352 357 360 359 1 354 320 322 337 356 12 23 25 25 25 25
114 114 115 113 106 101 112 129 117 104 100 91 80 75 76 66 60 66 83 93 93 89 75 56 18 344 336 344 348 346 346 353 2 354 350 7 28 38 29 22 23 26 19
113 116 121 126 129 115 99 98 108 113 106 97 84 79 79 83 72 64 66 99 150 185 168 188 221 314 328 318 326 332 333 335 340 351 16 25 21 22 17 14 16 17 18
116 117 122 128 130 116 92 67 104 120 117 103 90 91 97 91 88 80 45 34 106 221 206 210 216 252 267 300 330 350 354 1 25 57 43 28 22 19 11 5 3 6 8